sat.trackr.live / text

‹ back to catalog

STARLINK-3229

NORAD 49751 · 2021-115AD

PAYLOAD ACTIVE UNKNOWN

§ Identity

Operator
Country
US
Launch date
2021-12-02
Launch site
AFETR
Launch vehicle
Mass (kg)
RCS (m²)

Purposes: comms

External: N2YO · Heavens-Above · Gunter

§ Orbital elements

Epoch: 2026-09-09T16:35:31.119360Z

Period
93.79 min
Inclination
53.1599°
Eccentricity
0.0001064
Mean motion
15.35402478 rev/d
Perigee alt
459.0 km
Apogee alt
460.5 km
Semi-major
6,837.9 km
B*
9.4799e-5
RAAN
38.5979°
Arg perigee
84.4978°
Mean anomaly
275.6146°
Rev number
26,337

§ Raw data

STARLINK-32291 49751U 21115AD  26252.69133240  .00002928  00000+0  94799-4 0  99932 49751  53.1599  38.5979 0001064  84.4978 275.6146 15.35402478263373

JSON: /api/v1/satellites/49751 · /tle

For live sub-satellite position, see the globe view (requires WebGL).

§ Visibility from observer

Set your observer location to see the next 7 days of passes ≥ 10°. The values pass through the URL so the page stays shareable.

No JS? Fill the form by hand. The geolocation button needs JavaScript.